Regional Weather Roundup
Issued by NWS Kansas City/Pleasant Hill, MO

Home | Current Version | Previous Version | Text Only | Print | Product List | Glossary On
Versions: 1 2 3 4 5 6 7 8 9 10 11 12 13 14 15 16 17 18 19 20 21 22 23 24 25 26 27 28 29 30 31 32 33 34 35 36 37 38 39 40 41 42 43 44 45 46 47 48 49 50
000
ASUS43 KEAX 250611
RWREAX

WEATHER ROUNDUP FOR EASTERN KANSAS AND NORTHWEST MISSOURI
NATIONAL WEATHER SERVICE KANSAS CITY/PLEASANT HILL MO
100 AM CDT FRI APR 25 2014

KSZ040-057-103>105-MOZ028-029-037-043-250700-
...KANSAS CITY METROPOLITAN AREA...

CITY           SKY/WX    TMP DP  RH WIND       PRES   REMARKS
K.C. INTL      FAIR      48  43  82 SW8       29.86R
6HR MIN TEMP:  48; 6HR MAX TEMP:  57;

K.C. DOWNTOWN  FAIR      51  45  79 SW5       29.87R
6HR MIN TEMP:  51; 6HR MAX TEMP:  59;

LEES SUMMIT    FAIR      47  43  86 SW7       29.87R
6HR MIN TEMP:  47; 6HR MAX TEMP:  57; 6HR PCP: TRACE;

OLATHE - IXD   FAIR      48  42  80 SW5       29.88S
6HR MIN TEMP:  47; 6HR MAX TEMP:  57; 6HR PCP: TRACE;

OLATHE - OJC   FAIR      49  43  80 W5        29.87R
6HR MIN TEMP:  49; 6HR MAX TEMP:  57;

LAWRENCE       FAIR      42  40  92 CALM      29.88R

$$

MOZ001>008-011>017-020>025-030>033-038>040-044>046-053-054-250700-
...NORTHERN AND CENTRAL MISSOURI...

CITY           SKY/WX    TMP DP  RH WIND       PRES   REMARKS
ST. JOSEPH     FOG       42  41  96 CALM      29.86R VSB 1/4
6HR MIN TEMP:  42; 6HR MAX TEMP:  58;

MOSBY          FAIR      45  45 100 CALM      29.86R
WARRENSBURG    FAIR     N/A N/A N/A W8        29.86R
WHITEMAN AFB   FAIR      51  42  72 W8        29.85R
6HR MIN TEMP:  51; 6HR MAX TEMP:  56; 6HR PCP: TRACE;

CLINTON        FAIR      50  46  87 W7        29.88R
SEDALIA        FAIR      52  47  83 W10       29.84R
6HR MIN TEMP:  52; 6HR MAX TEMP:  58; 6HR PCP:  0.03;

WARSAW         NOT AVBL
MARSHALL         N/A     54  48  82 W6        29.85R
CHILLICOTHE      N/A     52  45  77 NW6       29.84R
6HR MIN TEMP:  52; 6HR MAX TEMP:  54;

MOBERLY        FAIR      52  45  76 W14       29.79R
KIRKSVILLE     FAIR      50  46  86 NW9       29.79R
6HR MIN TEMP:  50; 6HR MAX TEMP:  55;


$$

MOZ041-047>049-056>058-063>065-088>090-097-250700-
...EASTERN AND SOUTHERN MISSOURI...

CITY           SKY/WX    TMP DP  RH WIND       PRES   REMARKS
ST. LOUIS INTL CLOUDY    57  54  88 W10       29.70R
6HR MIN TEMP:  58; 6HR MAX TEMP:  61; 6HR PCP:  0.42;

SPIRIT OF STL  CLOUDY   N/A N/A N/A W16G23    29.70R
COLUMBIA       FAIR      51  47  86 NW10      29.79R
JEFFERSON CITY FAIR      52  48  86 W7        29.81R
MEXICO         FAIR      48  48 100 NW10      29.76R
HANNIBAL       FAIR      52  46  82 NW13G20   29.75R
ROLLA          FAIR      50  48  93 W12       29.79R
LEBANON        FAIR      50  46  87 W9        29.85R
OSAGE BEACH    FAIR      52  46  82 W7        29.85R
SPRINGFIELD    FAIR      51  45  79 NW7       29.88R
BRANSON        FAIR      54  43  66 NW8       29.89R
NEVADA         FAIR      48  45  87 W6        29.91S
JOPLIN         FAIR      49  44  83 SW5       29.92R
WEST PLAINS    CLOUDY    55  50  83 W12G17    29.80R
MALDEN         MOCLDY    61  55  82 NW7       29.71S

$$

IAZ060-094-KSZ022-034>040-054-083-096-NEZ052-066-093-250700-
...KANSAS...SOUTHEAST NEBRASKA AND IOWA...

CITY           SKY/WX    TMP DP  RH WIND       PRES   REMARKS
TOPEKA         FAIR      46  43  89 CALM      29.88R FOG
6HR MIN TEMP:  47; 6HR MAX TEMP:  64;

MANHATTAN      FAIR      42  41  96 CALM      29.87S
EMPORIA        FAIR      46  40  79 SW9       29.89S
CHANUTE        FAIR      45  41  86 CALM      29.91S
WICHITA        CLEAR     46  36  66 S6        29.91S
OMAHA          FAIR      49  42  77 SE6       29.82S
LINCOLN        FAIR      46  37  71 CALM      29.84S
FALLS CITY     FAIR      49  43  80 SW3       29.84R
LAMONI         FAIR      46  43  89 W8        29.82S
DES MOINES     FAIR      47  42  83 NW3       29.81R

$$




USA.gov is the U.S. government's official web portal to all federal, state and local government web resources and services.